Location: Newark
(22.3060°N, 114.2134°E)
Time: 03:16:09
(UTC+00:00)

Vanguard 1 Rocket - Pass Details

Date: 08 August 2021
Orbit: 650 x 4226 km, 34.3° (Epoch: 24 September)

Event Time Altitude Azimuth Distance (km) Brightness Sun altitude
Exits shadow 21:18:53 - 219° (SW) 7,358 11.5 -9.4°
Rises 21:18:59 0° 219° (SW) 7,342 11.5 -9.4°
Reaches altitude 10° 21:23:36 10° 214° (SW) 6,666 11.3 -8.4°
Maximum altitude 21:47:25 58° 141° (SE) 4,626 11.1 -3.2°
Drops below altitude 10° 22:10:06 10° 69° (ENE) 6,457 14.2 1.8°
Sets 22:14:23 0° 65° (ENE) 7,122 14.5 2.8°
